Regional Weather Roundup
Issued by NWS

Home | Current Version | Previous Version | Graphics & Text | Print | Product List | Glossary On
Versions: 1 2 3 4 5 6 7 8 9 10 11 12 13 14 15 16 17 18 19 20 21 22 23 24 25 26 27 28 29 30 31 32 33 34 35 36 37 38 39 40 41 42 43 44 45 46 47 48 49 50
000
ASUS43 KFSD 021102
RWRSD

WEATHER ROUNDUP FOR SOUTH DAKOTA
NATIONAL WEATHER SERVICE SIOUX FALLS SD
600 AM CDT MON MAY 02 2016

NOTE: "FAIR" INDICATES FEW OR NO CLOUDS BELOW 12,000 FEET WITH NO
SIGNIFICANT WEATHER AND/OR OBSTRUCTIONS TO VISIBILITY.


SDZ001>005-009-010-012>017-021200-
NORTHWEST AND NORTH CENTRAL SOUTH DAKOTA

CITY           SKY/WX    TMP DP  RH WIND       PRES   REMARKS
BUFFALO          N/A     40  31  70 W12       30.07F
FAITH            N/A     41  31  67 W8        30.11F
MOBRIDGE       PTCLDY    43  36  76 SE9       30.06F
$$

SDZ012>016-024>037-041>051-057-063-072>074-021200-
SOUTHWEST AND SOUTH CENTRAL SOUTH DAKOTA

CITY           SKY/WX    TMP DP  RH WIND       PRES   REMARKS
RAPID CTY ARPT CLEAR     37  28  70 W7        30.16F
PIERRE         PTCLDY    37  32  82 SW7       30.13F
CUSTER         CLEAR     31  23  72 W5        30.19F WCI  26
ELLSWORTH AFB  CLEAR     35  29  78 W9        30.15F WCI  28
PHILIP         CLEAR     35  31  85 W8        30.15F WCI  29
PINE RIDGE     CLEAR     29  25  85 W5        30.19F WCI  24
WINNER         FAIR      42  31  64 SW7       30.16S
$$

SDZ004>011-016>023-039-040-021200-
NORTHEAST SOUTH DAKOTA

CITY           SKY/WX    TMP DP  RH WIND       PRES   REMARKS
ABERDEEN       CLOUDY    36  32  85 S6        30.10F
WATERTOWN      CLOUDY    34  30  85 CALM      30.10F
BROOKINGS      CLEAR     33  31  92 CALM      30.11F
SISSETON         N/A     49  34  56 W10       30.07F
$$

SDZ017-020-022-023-036>040-048>070-021200-
SOUTHEAST SOUTH DAKOTA

CITY           SKY/WX    TMP DP  RH WIND       PRES   REMARKS
SIOUX FALLS    PTCLDY    35  32  88 CALM      30.13F
HURON          CLOUDY    37  32  82 CALM      30.12F
MITCHELL       CLEAR     39  34  82 W3        30.14S
YANKTON        CLEAR     39  34  81 SW3       30.14F
$$

ABBREVIATIONS USED IN REMARKS
   TC - TEMPERATURE IN CELSIUS
  WCI - WIND CHILL INDEX
   HX - HEAT INDEX
  VSB - VISIBILITY





USA.gov is the U.S. government's official web portal to all federal, state and local government web resources and services.